Meteo pe oră la Dabrowa

Astăzi, 23 Aprilie, Vineri

Timp Temperatura Precipitaţii Vânt Presiune Umiditate
00:00 +2°C° 0 mm 3 m/s 759 mmHg 92%
01:00 +2°C° 0 mm 3 m/s 759 mmHg 94%
02:00 +2°C° 0 mm 3 m/s 759 mmHg 95%
03:00 +2°C° 0 mm 3 m/s 760 mmHg 95%
04:00 +1°C° 0 mm 4 m/s 760 mmHg 95%
05:00 +1°C° 0 mm 4 m/s 760 mmHg 93%
06:00 +1°C° 0 mm 4 m/s 760 mmHg 91%
07:00 +1°C° 0 mm 4 m/s 761 mmHg 89%
08:00 +1°C° 0 mm 4 m/s 761 mmHg 87%
09:00 +3°C° 0 mm 4 m/s 761 mmHg 84%
10:00 +3°C° 0 mm 4 m/s 761 mmHg 82%
11:00 +4°C° 0 mm 4 m/s 761 mmHg 74%
12:00 +6°C° 0 mm 4 m/s 761 mmHg 66%
13:00 +7°C° 0 mm 4 m/s 762 mmHg 58%
14:00 +8°C° 0 mm 4 m/s 761 mmHg 52%
15:00 +10°C° 0 mm 4 m/s 761 mmHg 46%
16:00 +12°C° 0 mm 5 m/s 760 mmHg 40%
17:00 +10°C° 0 mm 4 m/s 761 mmHg 48%
18:00 +9°C° 0 mm 3 m/s 761 mmHg 55%
19:00 +7°C° 0 mm 2 m/s 761 mmHg 62%
20:00 +6°C° 0 mm 2 m/s 761 mmHg 66%
21:00 +5°C° 0 mm 2 m/s 761 mmHg 70%
22:00 +4°C° 0 mm 2 m/s 762 mmHg 74%
23:00 +5°C° 0 mm 2 m/s 762 mmHg 72%

Mâine, 24 Aprilie, Sâmbătă

Timp Temperatura Precipitaţii Vânt Presiune Umiditate
00:00 +5°C° 0 mm 2 m/s 761 mmHg 71%
01:00 +6°C° 0 mm 2 m/s 761 mmHg 70%
02:00 +5°C° 0 mm 2 m/s 761 mmHg 76%
03:00 +4°C° 0 mm 2 m/s 761 mmHg 82%
04:00 +3°C° 0 mm 2 m/s 761 mmHg 88%
05:00 +3°C° 0 mm 3 m/s 761 mmHg 84%
06:00 +3°C° 0 mm 3 m/s 762 mmHg 81%
07:00 +4°C° 0 mm 3 m/s 762 mmHg 78%
08:00 +5°C° 0 mm 4 m/s 762 mmHg 71%
09:00 +7°C° 0 mm 4 m/s 761 mmHg 64%
10:00 +8°C° 0 mm 4 m/s 761 mmHg 57%
11:00 +10°C° 0 mm 4 m/s 761 mmHg 53%
12:00 +10°C° 0 mm 5 m/s 761 mmHg 48%
13:00 +12°C° 0 mm 5 m/s 760 mmHg 44%
14:00 +10°C° 0 mm 5 m/s 760 mmHg 44%
15:00 +10°C° 0 mm 5 m/s 760 mmHg 45%
16:00 +10°C° 0 mm 5 m/s 760 mmHg 45%
17:00 +10°C° 0 mm 4 m/s 760 mmHg 51%
18:00 +8°C° 0 mm 4 m/s 760 mmHg 58%
19:00 +7°C° 0 mm 3 m/s 760 mmHg 64%
20:00 +5°C° 0 mm 3 m/s 761 mmHg 66%
21:00 +5°C° 0 mm 2 m/s 761 mmHg 67%
22:00 +3°C° 0 mm 2 m/s 761 mmHg 69%
23:00 +3°C° 0 mm 2 m/s 762 mmHg 67%

Poimâine, 25 Aprilie, Duminică

Timp Temperatura Precipitaţii Vânt Presiune Umiditate
00:00 +2°C° 0 mm 2 m/s 762 mmHg 64%
01:00 +2°C° 0 mm 1 m/s 762 mmHg 61%
02:00 +1°C° 0 mm 2 m/s 762 mmHg 63%
03:00 -1°C° 0 mm 2 m/s 762 mmHg 66%
04:00 -2°C° 0 mm 2 m/s 762 mmHg 68%
05:00 -1°C° 0 mm 2 m/s 762 mmHg 64%
06:00 +2°C° 0 mm 2 m/s 762 mmHg 60%
07:00 +2°C° 0 mm 3 m/s 762 mmHg 56%
08:00 +4°C° 0 mm 3 m/s 762 mmHg 49%
09:00 +7°C° 0 mm 3 m/s 762 mmHg 42%
10:00 +9°C° 0 mm 3 m/s 762 mmHg 36%
11:00 +8°C° 0 mm 4 m/s 762 mmHg 33%
12:00 +10°C° 0 mm 4 m/s 762 mmHg 31%
13:00 +11°C° 0 mm 4 m/s 761 mmHg 29%
14:00 +11°C° 0 mm 4 m/s 761 mmHg 29%
15:00 +11°C° 0 mm 4 m/s 761 mmHg 30%
16:00 +11°C° 0 mm 4 m/s 761 mmHg 31%
17:00 +9°C° 0 mm 3 m/s 761 mmHg 39%
18:00 +8°C° 0 mm 3 m/s 761 mmHg 48%
19:00 +6°C° 0 mm 2 m/s 761 mmHg 57%
20:00 +5°C° 0 mm 2 m/s 761 mmHg 61%
21:00 +5°C° 0 mm 1 m/s 761 mmHg 65%
22:00 +4°C° 0 mm 1 m/s 761 mmHg 70%
23:00 +3°C° 0 mm 1 m/s 761 mmHg 72%

26 Aprilie, Luni

Timp Temperatura Precipitaţii Vânt Presiune Umiditate
00:00 +3°C° 0 mm 1 m/s 760 mmHg 74%
01:00 +2°C° 0 mm 1 m/s 760 mmHg 76%
02:00 +2°C° 0 mm 1 m/s 760 mmHg 76%
03:00 +2°C° 0 mm 1 m/s 760 mmHg 77%
04:00 +2°C° 0 mm 1 m/s 759 mmHg 77%
05:00 +3°C° 0 mm 1 m/s 759 mmHg 72%
06:00 +5°C° 0 mm 1 m/s 759 mmHg 66%
07:00 +6°C° 0 mm 1 m/s 759 mmHg 61%
08:00 +7°C° 0 mm 1 m/s 759 mmHg 54%
09:00 +8°C° 0 mm 2 m/s 759 mmHg 48%
10:00 +9°C° 0 mm 2 m/s 758 mmHg 41%
11:00 +10°C° 0 mm 2 m/s 758 mmHg 38%
12:00 +10°C° 0 mm 3 m/s 758 mmHg 36%
13:00 +11°C° 0 mm 3 m/s 757 mmHg 33%
14:00 +11°C° 0 mm 3 m/s 757 mmHg 32%
15:00 +11°C° 0 mm 3 m/s 757 mmHg 31%
16:00 +11°C° 0 mm 3 m/s 756 mmHg 30%
17:00 +10°C° 0 mm 2 m/s 756 mmHg 37%
18:00 +8°C° 0 mm 2 m/s 756 mmHg 43%
19:00 +6°C° 0 mm 2 m/s 756 mmHg 50%
20:00 +5°C° 0 mm 2 m/s 756 mmHg 53%
21:00 +4°C° 0 mm 2 m/s 756 mmHg 56%
22:00 +3°C° 0 mm 2 m/s 756 mmHg 60%
23:00 +2°C° 0 mm 2 m/s 756 mmHg 62%

27 Aprilie, Marţi

Timp Temperatura Precipitaţii Vânt Presiune Umiditate
00:00 +2°C° 0 mm 2 m/s 756 mmHg 65%
01:00 +1°C° 0 mm 2 m/s 755 mmHg 68%
02:00 +1°C° 0 mm 2 m/s 755 mmHg 70%
03:00 +1°C° 0 mm 2 m/s 755 mmHg 71%
04:00 +1°C° 0 mm 2 m/s 754 mmHg 73%
05:00 +2°C° 0 mm 2 m/s 754 mmHg 68%
06:00 +2°C° 0 mm 3 m/s 754 mmHg 64%
07:00 +3°C° 0 mm 3 m/s 754 mmHg 59%
08:00 +5°C° 0 mm 4 m/s 753 mmHg 52%
09:00 +7°C° 0 mm 4 m/s 753 mmHg 46%
10:00 +9°C° 0 mm 5 m/s 753 mmHg 39%
11:00 +10°C° 0 mm 5 m/s 752 mmHg 38%
12:00 +10°C° 0 mm 5 m/s 751 mmHg 36%
13:00 +12°C° 0 mm 5 m/s 751 mmHg 34%
14:00 +12°C° 0 mm 5 m/s 750 mmHg 37%
15:00 +12°C° 0 mm 5 m/s 750 mmHg 41%
16:00 +12°C° 0 mm 5 m/s 749 mmHg 44%
17:00 +11°C° 0 mm 4 m/s 749 mmHg 48%
18:00 +10°C° 0 mm 4 m/s 749 mmHg 52%
19:00 +8°C° 0 mm 4 m/s 749 mmHg 56%
20:00 +7°C° 0.1 mm 4 m/s 748 mmHg 63%
21:00 +6°C° 0.1 mm 4 m/s 748 mmHg 69%
22:00 +7°C° 0.1 mm 3 m/s 748 mmHg 75%
23:00 +5°C° 0.4 mm 4 m/s 748 mmHg 79%

28 Aprilie, Miercuri

Timp Temperatura Precipitaţii Vânt Presiune Umiditate
00:00 +5°C° 0.4 mm 4 m/s 747 mmHg 83%
01:00 +5°C° 0.4 mm 4 m/s 747 mmHg 87%
02:00 +5°C° 0.3 mm 4 m/s 747 mmHg 90%
03:00 +4°C° 0.3 mm 4 m/s 746 mmHg 93%
04:00 +4°C° 0.3 mm 4 m/s 746 mmHg 95%
05:00 +4°C° 0.1 mm 4 m/s 746 mmHg 95%
06:00 +4°C° 0.1 mm 3 m/s 746 mmHg 96%
07:00 +4°C° 0.1 mm 3 m/s 747 mmHg 96%
08:00 +4°C° 0.1 mm 3 m/s 747 mmHg 95%
09:00 +4°C° 0.1 mm 3 m/s 747 mmHg 94%
10:00 +5°C° 0.1 mm 2 m/s 747 mmHg 93%
11:00 +6°C° 0 mm 2 m/s 747 mmHg 91%
12:00 +6°C° 0 mm 2 m/s 748 mmHg 89%
13:00 +6°C° 0 mm 2 m/s 748 mmHg 87%
14:00 +6°C° 0.1 mm 2 m/s 748 mmHg 89%
15:00 +6°C° 0.1 mm 2 m/s 748 mmHg 90%
16:00 +6°C° 0.1 mm 2 m/s 748 mmHg 91%
17:00 +6°C° 0 mm 2 m/s 749 mmHg 92%
18:00 +6°C° 0 mm 2 m/s 749 mmHg 93%
19:00 +7°C° 0 mm 1 m/s 749 mmHg 95%
20:00 +7°C° 0 mm 1 m/s 749 mmHg 95%
21:00 +6°C° 0 mm 1 m/s 749 mmHg 95%
22:00 +6°C° 0 mm 1 m/s 750 mmHg 95%
23:00 +6°C° 0 mm 1 m/s 750 mmHg 95%
Arată mai mult

Formular de consimțământ

Meteoprog și furnizorii noștri de servicii pot stoca și accesa date personale, precum cookies, identificatori de dispozitiv sau alte tehnologii similare pe dispozitivul dumneavoastră și procesa astfel de date pentru a personaliza conținutul și reclamele, dar și pentru a oferi caracteristici de social media și pentru a analiza traficul.

  • Stocarea și/sau accesarea informațiilor pe dispozitivul dumneavoastră

    Cookies, identificatori de dispozitiv sau alte informații pot fi stocate sau accesate pe dispozitiv în scopurile indicate mai sus.

  • Reclame și conținut personalizat, evaluarea reclamelor și a conținutului, informații despre audiențe și dezvoltarea produselor

    Reclamele și conținutul pot fi personalizate pe baza unui profil. Pot fi adăugate date suplimentare pentru a personaliza mai bine reclamele și conținutul. Performanța reclamelor și conținutului poate fi măsurată. Pot fi obținute informații despre utilizatorii care au văzut reclamele și conținutul. Aceste date pot fi utilizate pentru a dezvolta sau îmbunătăți experiența utilizatorilor, sistemele și software-ul.

Dând clic pe ‘Sunt de acord’, permiteți utilizarea cookie-urilor menționate, a identificatorilor de dispozitiv, balizelor web sau altor tehnologii similare. Setările pot fi modificate din browser-ul dispozitivului dumneavoastră.

În anumite scopuri, interesele legitime pot prima asupra consimțământului. Puteți citi mai multe informații în acest sens în Politica privind Confidențialitatea Datelor și Cookie.